User: anonymous   Login
Location: Caltech
(34.1382°N, 118.1253°W)
Time: 11:46:28
(UTC-07:00)
Language:

Cosmos 2237 Rocket - Orbit

View from above orbital plane
View from above orbital plane
View from above satellite
View from above satellite

Ground track
Ground track

The orbit data is extracted from the following two-line orbital elements,

1 22566U 93016B   14296.58238653 -.00000212  00000-0 -84967-4 0  1887
2 22566 071.0074 297.8577 0009678 179.4568 180.6567 14.14860277114400
Epoch (UTC): 23 October 2014 13:58:38
Eccentricity: 0.0009678
inclination: 71.0074°
perigee height: 836 km
apogee height: 850 km
right ascension of ascending node: 297.8577°
argument of perigee: 179.4568°
revolutions per day: 14.14860277
mean anomaly at epoch: 180.6567°
orbit number at epoch: 11440

The dashed part of the orbit path shows where the satellite is in the earth's shadow,  

DLR